Home > Weather > St. Peter Port > Past weeks

Flag for Guernsey Past Weather in St. Peter Port, Guernsey — Yesterday and Last 2 Weeks

Now
61 °F

Broken clouds.


Feels Like: 61 °F
Forecast: 58 / 61 °F
Wind: 16 mph from Southwest

Location: Guernsey Airport

Current Time: Jun 30, 2016 at 3:10:51 PM

Latest Report: Jun 30, 2016 at 2:20 PM


Visibility: N/A

Pressure: 29.92 "Hg

Humidity: 94%

Dew Point: 59 °F

Location of St. Peter PortLocation

Past Weather in St. Peter Port — Graph

°F

St. Peter Port Temperature Yesterday

Maximum temperature yesterday: 57 °F (at 5:20 AM)
Minimum temperature yesterday: 55 °F (at 3:50 AM)
Average temperature yesterday: 57 °F

High & Low Weather Summary for the Past Weeks

 TemperatureHumidityPressure
High70 °F (Jun 22, 2:50 PM)100% (Jun 16, 3:50 AM)30.30 "Hg (Jun 16, 3:50 AM)
Low54 °F (Jun 17, 3:50 AM)64% (Jun 16, 1:50 PM)29.50 "Hg (Jun 15, 1:20 PM)
Average59 °F90%30.01 "Hg
* Reported Jun 15 1:20 PM — Jun 30 1:50 PM, St. Peter Port, Weather by CustomWeather, © 2016

Note: Actual official high and low records may vary slightly from our data, if they occured in-between our weather recording intervals... More about our weather records

Advertising

St. Peter Port Weather History for the Previous 24 Hours

Scroll right to see more
 ConditionsComfort  
Time TempWeatherWind HumidityBarometerVisibility
1:50 PM
Thu, Jun 30
61 °FBroken clouds.16 mph94%29.92 "Hg4 mi
1:20 PM59 °FFog.14 mph100%29.92 "Hg2 mi
12:50 PM59 °FFog.14 mph100%29.92 "Hg2 mi
12:20 PM59 °FBroken clouds.14 mph100%29.92 "HgN/A
11:50 AM59 °FPartly sunny.15 mph100%29.92 "Hg4 mi
11:20 AM59 °FBroken clouds.15 mph100%29.89 "Hg4 mi
10:50 AM59 °FBroken clouds.15 mph100%29.89 "Hg4 mi
10:20 AM59 °FFog.14 mph100%29.89 "Hg2 mi
9:50 AM59 °FFog.14 mph100%29.89 "Hg1 mi
9:20 AM59 °FDrizzle. Fog.15 mph100%29.86 "Hg1 mi
8:50 AM57 °FFog.14 mph100%29.86 "Hg1 mi
8:20 AM57 °FDrizzle. Fog.15 mph100%29.86 "Hg0 mi
7:50 AM57 °FDrizzle. Fog.15 mph100%29.86 "Hg0 mi
7:20 AM57 °FFog.14 mph100%29.86 "Hg0 mi
6:50 AM57 °FFog.13 mph100%29.83 "Hg0 mi
6:20 AM57 °FDrizzle. Fog.15 mph100%29.83 "Hg0 mi
5:20 AM57 °FFog.16 mph100%29.83 "Hg0 mi
4:50 AM57 °FFog.16 mph100%29.83 "Hg0 mi
4:20 AM57 °FDrizzle. Fog.15 mph100%29.83 "Hg0 mi
3:50 AM57 °FDrizzle. Fog.17 mph100%29.80 "Hg1 mi
9:50 PM
Wed, Jun 29
57 °FBroken clouds.13 mph100%29.86 "HgN/A
9:20 PM57 °FPartly sunny.14 mph100%29.83 "HgN/A
8:50 PM57 °FPartly sunny.14 mph100%29.83 "HgN/A
8:20 PM57 °FScattered clouds.16 mph100%29.83 "HgN/A
7:50 PM57 °FPartly sunny.17 mph100%29.83 "HgN/A
7:20 PM57 °FPartly sunny.17 mph100%29.83 "HgN/A
6:50 PM57 °FPartly sunny.17 mph100%29.83 "HgN/A
6:20 PM57 °FDrizzle. Broken clouds.17 mph94%29.83 "HgN/A
5:50 PM57 °FPartly sunny.16 mph94%29.83 "HgN/A
5:20 PM57 °FPartly sunny.18 mph94%29.83 "HgN/A
4:50 PM57 °FBroken clouds.18 mph100%29.86 "HgN/A
4:20 PM55 °FBroken clouds.18 mph100%29.86 "HgN/A
3:50 PM57 °FDrizzle. Fog.21 mph94%29.86 "Hg1 mi
3:20 PM57 °FDrizzle. Fog.14 mph100%29.86 "Hg1 mi
Weather by CustomWeather, © 2016

See weather overviewHow to use our weather pages